This demonstration page uses our WeatherBlox Daily Observations layout. Learn more.

Left ArrowRight Arrow

Hourly Observations for January 17, 2017

Temp ( °F °C ) Dew Point ( °F °C ) Humidity (%) Winds ( mph kmh ) Pressure ( in mb ) Visibility ( mi km ) Precip ( " mm )
12:58 am 00:58 Cloudy 32 0 32 0 100 100 NW 8 13 30.00 1016 10 16 0.00 0.00
1:58 am 01:58 Cloudy 33 0.5 33 0.5 100 100 NW 10 17 30.01 1016 10 16 0.00 0.00
2:07 am 02:07 Cloudy 32 0 32 0 100 100 NW 9 15 30.03 1017 10 16 0.00 0.00
2:22 am 02:22 Cloudy 32 0 32 0 100 100 NW 12 19 30.03 1017 10 16 0.00 0.00
2:49 am 02:49 Cloudy 32 0 32 0 100 100 NW 12 19 30.06 1018 10 16 0.00 0.00
2:58 am 02:58 Cloudy 32 -0.1 32 -0.1 100 100 NW 12 19 30.03 1017 10 16 0.00 0.00
3:07 am 03:07 Cloudy 32 0 32 0 100 100 NW 12 19 30.06 1018 10 16 0.00 0.00
3:10 am 03:10 Cloudy 32 0 32 0 100 100 NW 8 13 30.06 1018 10 16 0.00 0.00
3:19 am 03:19 Cloudy 32 0 32 0 100 100 WNW 9 15 30.06 1018 10 16 0.00 0.00
3:58 am 03:58 Cloudy 31 -0.4 31 -0.5 99 99 NW 17 28 30.03 1017 10 16 0.00 0.00
4:01 am 04:01 Cloudy 32 0 32 0 100 100 NW 16 26 30.06 1018 10 16 0.00 0.00
4:25 am 04:25 Cloudy 32 0 32 0 100 100 WNW 10 17 30.06 1018 10 16 0.00 0.00
4:58 am 04:58 Cloudy 30 -0.9 30 -1 99 99 WNW 15 24 30.04 1017 10 16 0.00 0.00
5:04 am 05:04 Cloudy 30 -1 30 -1 100 100 WNW 13 20 30.06 1018 10 16 0.00 0.00
5:39 am 05:39 Cloudy 30 -1 30 -1 100 100 NW 9 15 30.06 1018 10 16 0.00 0.00
5:45 am 05:45 Cloudy 30 -1 30 -1 100 100 WNW 13 20 30.06 1018 10 16 0.00 0.00
5:58 am 05:58 Cloudy 29 -1.4 29 -1.4 100 100 NW 10 17 30.06 1018 10 16 0.00 0.00
6:10 am 06:10 Cloudy 30 -1 30 -1 100 100 WNW 8 13 30.09 1019 10 16 0.00 0.00
6:13 am 06:13 Cloudy 28 -2 28 -2 100 100 WNW 9 15 30.09 1019 10 16 0.00 0.00
6:36 am 06:36 Cloudy 28 -2 28 -2 100 100 WNW 8 13 30.09 1019 10 16 0.00 0.00
6:58 am 06:58 Cloudy 29 -1.8 29 -1.8 100 100 W 7 11 30.09 1019 10 16 0.00 0.00
7:58 am 07:58 Cloudy 27 -2.6 27 -2.6 100 100 W 7 11 30.11 1020 10 16 0.00 0.00
8:37 am 08:37 Cloudy 27 -3 27 -3 100 100 WNW 8 13 30.12 1020 10 16 0.00 0.00
8:58 am 08:58 Cloudy 27 -2.9 27 -2.9 100 100 WNW 8 13 30.13 1020 10 16 0.00 0.00
9:31 am 09:31 Cloudy 27 -3 27 -3 100 100 W 7 11 30.15 1021 10 16 0.00 0.00
9:43 am 09:43 Cloudy 27 -3 27 -3 100 100 WNW 9 15 30.15 1021 10 16 0.00 0.00
9:55 am 09:55 Cloudy 28 -2 27 -3 93 93 WNW 8 13 30.15 1021 10 16 0.00 0.00
9:58 am 09:58 Cloudy 28 -2.4 27 -2.6 99 99 WNW 8 13 30.14 1021 10 16 0.00 0.00
10:07 am 10:07 Cloudy 28 -2 27 -3 93 93 WNW 9 15 30.15 1021 10 16 0.00 0.00
10:59 am 10:59 Cloudy 28 -2.1 28 -2.2 99 99 WNW 8 13 30.16 1021 10 16 0.00 0.00
11:29 am 11:29 Cloudy 28 -2 28 -2 100 100 WNW 6 9 30.15 1021 10 16 0.00 0.00
11:56 am 11:56 Cloudy 30 -1 28 -2 93 93 W 5 7 30.15 1021 10 16 0.00 0.00
11:58 am 11:58 Cloudy 30 -1 28 -2 93 93 W 5 7 30.14 1021 10 16 0.00 0.00
12:25 pm 12:25 Cloudy 30 -1 30 -1 100 100 W 7 11 30.15 1021 10 16 0.00 0.00
12:34 pm 12:34 Cloudy 32 0 30 -1 93 93 W 7 11 30.12 1020 10 16 0.00 0.00
12:58 pm 12:58 Cloudy 31 -0.5 31 -0.7 99 99 WSW 7 11 30.11 1020 10 16 0.00 0.00
1:07 pm 13:07 Cloudy 32 0 32 0 100 100 W 8 13 30.12 1020 10 16 0.00 0.00
1:31 pm 13:31 Cloudy 32 0 32 0 100 100 W 8 13 30.12 1020 10 16 0.00 0.00
1:37 pm 13:37 Cloudy 32 0 32 0 100 100 W 8 13 30.12 1020 10 16 0.00 0.00
1:46 pm 13:46 Cloudy 32 0 32 0 100 100 W 10 17 30.12 1020 10 16 0.00 0.00
1:58 pm 13:58 Cloudy 31 -0.4 31 -0.4 100 100 W 8 13 30.11 1020 10 16 0.00 0.00
2:04 pm 14:04 Cloudy 32 0 32 0 100 100 W 7 11 30.12 1020 10 16 0.00 0.00
2:16 pm 14:16 Cloudy 32 0 32 0 100 100 WNW 8 13 30.12 1020 10 16 0.00 0.00
2:22 pm 14:22 Cloudy 32 0 32 0 100 100 WSW 7 11 30.12 1020 10 16 0.00 0.00
2:37 pm 14:37 Cloudy 32 0 32 0 100 100 WSW 6 9 30.12 1020 10 16 0.00 0.00
2:49 pm 14:49 Cloudy 32 0 32 0 100 100 Calm 30.12 1020 10 16 0.00 0.00
2:58 pm 14:58 Cloudy 36 2 32 0 87 87 VRB 3 6 30.11 1020 10 16 0.00 0.00
3:19 pm 15:19 Partly Cloudy 36 2 32 0 87 87 WSW 5 7 30.09 1019 10 16 0.00 0.00
3:58 pm 15:58 Sunny 36 2.1 32 -0.1 86 86 WSW 8 13 30.13 1020 10 16 0.00 0.00
4:58 pm 16:58 Sunny 35 1.7 32 -0.2 87 87 SW 5 7 30.13 1020 10 16 0.00 0.00
5:58 pm 17:58 Clear 30 -1.3 30 -1.3 100 100 SSE 8 13 30.15 1021 10 16 0.00 0.00
6:58 pm 18:58 Clear 28 -2.5 28 -2.5 100 100 Calm 30.15 1021 9 14 0.00 0.00
7:58 pm 19:58 Clear with Mist and Fog 26 -3.5 26 -3.5 100 100 SE 3 6 30.14 1021 5 8 0.00 0.00
8:58 pm 20:58 Clear with Mist and Fog 26 -3.3 26 -3.3 100 100 Calm 30.14 1021 3 5 0.00 0.00
9:58 pm 21:58 Clear with Mist and Fog 24 -4.3 24 -4.3 100 100 ESE 5 7 30.13 1020 5 8 0.00 0.00
10:58 pm 22:58 Clear with Mist and Fog 25 -4 25 -4 100 100 ESE 5 7 30.14 1021 5 8 0.00 0.00
11:58 pm 23:58 Clear with Mist and Fog 28 -2 28 -2 100 100 SSE 6 9 29.96 1015 5 8 0.00 0.00

Powered by AerisWeather